Content
SEND FEEDBACK

Daily
Averages
Monthly
Summary
United States of America

ST. LOUIS, MISSOURI


Home > North America > United States > Missouri
Elevation: 535 feet     Latitude: 38 45N     Longitude: 090 22W

WEATHER
 
SELECT A DAY
Number of Records: 196,395;   Date Range: 1/1/95 - 7/29/14
 
SHARE

PRINT THIS DATA

[ ← Previous Day ]
WEATHER ALMANAC - MAY 24, 2013
[ Next Day → ]
[ °C ]   °F
Weather ElementAverageHighLow
Temperature58.2 °F70 °F (4:54 pm)46.9 °F (4:54 am)
Dewpoint40.6 °F48 °F (2:54 am)35.1 °F (10:54 am)
Humidity56.8 %93 % (4:54 am)28 % (4:54 pm)
Barometer30.33 in30.41 in (9:54 am)30.25 in (1:54 am)
Wind Speed4.8 mph11.5 mph (7:54 am)
Weather ElementAverage
Visibility9.7 mi
Wind DirectionENE (64.8 °)

Weather ElementTotal
Precipitation---
Heating Degree Days6.6 (Base 65)
Growing Degree Days8.5 (Base 50)
Averaged from 23 records on May 24, 2013
WEATHER CONDITIONS BREAKOUT
WIND DIRECTION BREAKOUT
WEATHER BY HOUR - MAY 24, 2013
[ °C ]   °F
Local TimeTemperatureDewpointHumidityBarometerVisibilityWind DirectionWind SpeedGust SpeedPrecipitationEventsConditions
1:54 AM52.0 °F46.9 °F83 %30.25 in10.0 miEast (80°)5.8 mphClear
2:54 AM52.0 °F48.0 °F86 %30.26 in10.0 miEast (80°)6.9 mphClear
3:54 AM51.1 °F46.9 °F86 %30.29 in10.0 miCalmClear
4:54 AM46.9 °F45.0 °F93 %30.31 in3.0 miCalmClear
5:54 AM46.9 °F44.1 °F90 %30.35 in10.0 miCalmPartly Cloudy
6:54 AM50.0 °F45.0 °F83 %30.37 in10.0 miEast (80°)6.9 mphClear
7:54 AM52.0 °F39.0 °F61 %30.38 in10.0 miENE (70°)11.5 mphClear
8:54 AM55.0 °F37.9 °F53 %30.40 in10.0 miENE (70°)8.1 mphClear
9:54 AM57.9 °F37.9 °F47 %30.41 in10.0 miNE (40°)4.6 mphClear
10:54 AM60.1 °F35.1 °F39 %30.40 in10.0 miNE (50°)11.5 mphClear
11:54 AM62.1 °F35.1 °F37 %30.40 in10.0 miENE (70°)4.6 mphClear
12:54 PM64.9 °F37.0 °F36 %30.39 in10.0 miNE (50°)9.2 mphClear
1:54 PM66.9 °F39.0 °F36 %30.38 in10.0 miEast (100°)6.9 mphClear
2:54 PM68.0 °F39.0 °F35 %30.34 in10.0 miVariable3.5 mphClear
3:54 PM69.1 °F36.0 °F30 %30.31 in10.0 miENE (60°)8.1 mphClear
4:54 PM70.0 °F35.1 °F28 %30.30 in10.0 miSE (130°)4.6 mphClear
5:54 PM69.1 °F35.1 °F29 %30.27 in10.0 miSE (130°)5.8 mphClear
6:54 PM68.0 °F37.0 °F32 %30.26 in10.0 miSSE (160°)4.6 mphClear
7:54 PM64.9 °F39.0 °F39 %30.26 in10.0 miSSE (150°)3.5 mphClear
8:54 PM55.9 °F44.1 °F64 %30.27 in10.0 miSouth (170°)3.5 mphClear
9:54 PM52.0 °F44.1 °F74 %30.30 in10.0 miCalmClear
10:54 PM51.1 °F44.1 °F77 %30.30 in10.0 miCalmClear
11:54 PM53.1 °F43.0 °F69 %30.28 in10.0 miCalmClear
Hourly data recorded from KSUS, located miles away from St. Louis, Missouri







STORIES FROM OUR PARTNERS